Home > Time Zones > World Clock > Weather > China > Hefei > Past weeks

Flag for China Weather past 2 weeks in Hefei, Anhui, China

Now
63 °F

Sunny.


Feels Like: 63 °F
Forecast: 62 / 84 °F
Wind: 6 mph from South

Location: Hefei Airport

Current Time: Apr 27, 2015 at 7:28:58 AM

Latest Report: Apr 27, 2015 at 6:00 AM


Visibility: 10 mi

Pressure: 29.86 "Hg

Humidity: 73%

Dew point: 54 °F

Location of HefeiLocation

Historic Weather in Hefei — Graph

°F

Hefei temperature yesterday

Maximum temperature yesterday: 84 °F (at 2:00 PM)
Minimum temperature yesterday: 57 °F (at 6:00 AM)
Average temperature yesterday: 72 °F

Past Weeks' High & Low Weather Summary

 TemperatureHumidityPressure
High84 °F (Apr 26, 2:00 PM)100% (Apr 19, 4:00 AM)30.27 "Hg (Apr 19, 4:00 AM)
Low43 °F (Apr 13, 4:00 AM)20% (Apr 25, 4:00 PM)29.62 "Hg (Apr 18, 4:00 PM)
Average63 °F65%29.98 "Hg
* Reported Apr 12 6:00 AM — Apr 27 6:00 AM, Hefei, Weather by CustomWeather, © 2015

Note: Actual official high and low records may vary slightly from our data, if they occured in-between our weather recording intervals... More about our weather records

Advertising

Hefei weather history for previous 24 hours

 ConditionsComfort  
Time TempWeatherWind HumidityBarometerVisibility
6:00 AM
Mon, Apr 27
63 °FSunny.6 mph73%29.86 "Hg10 mi
5:00 AM63 °FClear.8 mph73%29.86 "Hg10 mi
4:00 AM63 °FClear.6 mph73%29.86 "Hg10 mi
3:00 AM63 °FClear.6 mph73%29.86 "Hg10 mi
2:00 AM64 °FClear.8 mph68%29.86 "Hg10 mi
1:00 AM64 °FClear.3 mph60%29.89 "Hg10 mi
12:00 AM64 °FClear.8 mph56%29.89 "Hg10 mi
11:00 PM
Sun, Apr 26
66 °FClear.6 mph56%29.92 "Hg10 mi
10:00 PM70 °FClear.6 mph46%29.92 "Hg10 mi
9:00 PM70 °FClear.6 mph40%29.92 "Hg10 mi
8:00 PM72 °FClear.6 mph38%29.92 "Hg10 mi
7:00 PM75 °FClear.6 mph34%29.92 "Hg10 mi
6:00 PM81 °FSunny.3 mph26%29.92 "Hg10 mi
5:00 PM82 °FSunny.6 mph28%29.92 "Hg10 mi
4:00 PM84 °FPassing clouds.8 mph25%29.92 "HgN/A
3:00 PM84 °FPassing clouds.6 mph27%29.95 "HgN/A
2:00 PM84 °FPassing clouds.8 mph29%29.98 "HgN/A
1:00 PM82 °FPassing clouds.6 mph32%30.01 "HgN/A
12:00 PM81 °FPassing clouds.3 mph30%30.04 "HgN/A
11:00 AM79 °FPassing clouds.6 mph37%30.04 "HgN/A
10:00 AM75 °FClear.8 mph44%30.07 "Hg5 mi
9:00 AM73 °FClear.6 mph50%30.07 "Hg4 mi
8:00 AM70 °FHaze.6 mph60%30.07 "Hg2 mi
7:00 AM64 °FFog.3 mph78%30.04 "Hg2 mi
Weather by CustomWeather, © 2015

See weather overviewHow to use our weather pages